Location: Staunton
(38.1490°N, 79.0720°W)
Time: 04:50:21
(UTC-05:00)

ISS - Pass Details

Date: 12 January 2019
Orbit: 404 x 407 km, 51.6° (Epoch: 16 January)

Event Time Altitude Azimuth Distance (km) Brightness Sun altitude
Exits shadow 06:47:32 12° 281° (W) 1,342 -1.9 -8.9°
Maximum altitude 06:49:56 25° 228° (SW) 863 -2.4 -8.5°
Drops below altitude 10° 06:52:40 10° 170° (S) 1,455 -0.6 -7.9°
Sets 06:54:57 0° 157° (SSE) 2,310 0.8 -7.5°
